User: anonymous   Login
Location: Springfield
(37.2150°N, 93.2980°W)
Time: 16:18:32
(UTC-05:00)
Language:

Iridium 62 - Orbit

View from above orbital plane
View from above orbital plane
View from above satellite
View from above satellite

Ground track
Ground track

The orbit data is extracted from the following two-line orbital elements,

1 25285U 98021A   17229.47042945 -.00000008  00000-0 -10035-4 0  9991
2 25285  86.3984 198.2900 0002199  85.9732 274.1715 14.34213502 13800
Epoch (UTC): 17 August 2017 11:17:25
Eccentricity: 0.0002199
inclination: 86.3984°
perigee height: 776 km
apogee height: 779 km
right ascension of ascending node: 198.2900°
argument of perigee: 85.9732°
revolutions per day: 14.34213502
mean anomaly at epoch: 274.1715°
orbit number at epoch: 1380

The dashed part of the orbit path shows where the satellite is in the earth's shadow,  

DLR